BIROS (41604 NORAD) Tracking and Keplerian Element Data

This shows tracking and keplerian element data for the satellite.

Feedback or suggestion? Click here.




ElementValue
Catalog41604
NameBIROS
Epoch Orbit15745
Epoch Day114.1636897
Epoch Year2019
RAAN176.5852
Inclination97.3696
Eccentricity0.0011438
Argument of Perigee214.0439
Mean Anonmoly146.0064
Mean Motion15.2166992
Decay Rate4.08E-06
L11 41604U 16040F 19114.16368970 .00000408 00000-0 21081-4 0 9990
L22 41604 97.3696 176.5852 0011438 214.0439 146.0064 15.21669920157455

Live tracking and technical data element details for BIROS (NORAD 41604). BIROS can be tracked NOW for your location showing map with azimuth and elevation plus other details from your city location.

Track the satellite on the map from your city or location and see movement details for azimuth, elevation, latitude, longitude, range, height, and movement on the map or in text.







IsCatalogInMostPopularTable: catalog: 41604, numindb: 185
Update: records affected: 1



GetName: 41604 BIROS

Hit Count: updated at: Thu, 25 Apr 2019 19:50:32 GMT